This is the latest recevied weather packets stored in our database for station/object KB1RMA-13. If no packets are shown the sender has not sent any weather packets the latest 10 day(s).
| Time | Temp. | Humidity | Pressure | Rain* | Wind** | Luminosity | Snow |
|---|---|---|---|---|---|---|---|
| 1777765766 | 9.44° C | 92% | 1010.5 hPa | 0 mm | - | 1 W/m² | - |
| 1777765462 | 9.44° C | 92% | 1010.5 hPa | 0 mm | - | 1 W/m² | - |
| 1777765160 | 9.44° C | 91% | 1010.3 hPa | 0 mm | - | 2 W/m² | - |
| 1777764855 | 9.44° C | 91% | 1010.4 hPa | 0 mm | - | 4 W/m² | - |
| 1777764552 | 9.44° C | 90% | 1010.5 hPa | 0 mm | - | 4 W/m² | - |
| 1777764248 | 10° C | 90% | 1010.6 hPa | 0 mm | - | 5 W/m² | - |
| 1777763945 | 10° C | 89% | 1010.3 hPa | 0 mm | - | 5 W/m² | - |
| 1777763643 | 10° C | 88% | 1010.5 hPa | 0 mm | - | 9 W/m² | - |
| 1777763341 | 10° C | 86% | 1010.4 hPa | 0 mm | - | 6 W/m² | - |
| 1777763039 | 10° C | 86% | 1010.4 hPa | 0 mm | - | 4 W/m² | - |
| 1777762736 | 10° C | 85% | 1010.2 hPa | 0 mm | - | 6 W/m² | - |
| 1777762432 | 10.56° C | 85% | 1010.1 hPa | 0 mm | - | 9 W/m² | - |
| 1777762129 | 10.56° C | 85% | 1010.2 hPa | 0 mm | - | 10 W/m² | - |
| 1777761825 | 10.56° C | 84% | 1010.2 hPa | 0 mm | - | 17 W/m² | - |
| 1777761523 | 10.56° C | 83% | 1010 hPa | 0 mm | - | 33 W/m² | - |
| 1777761221 | 11.11° C | 82% | 1010.1 hPa | 0 mm | - | 34 W/m² | - |
| 1777760918 | 11.11° C | 81% | 1010.1 hPa | 0 mm | - | 19 W/m² | - |
| 1777760616 | 11.11° C | 80% | 1010.2 hPa | 0 mm | - | 14 W/m² | - |
| 1777760311 | 11.67° C | 79% | 1010 hPa | 0 mm | - | 17 W/m² | - |
| 1777760007 | 12.22° C | 75% | 1010.1 hPa | 0 mm | - | 15 W/m² | - |
| 1777759705 | 12.22° C | 67% | 1009.8 hPa | 0 mm | - | 9 W/m² | - |
| 1777759400 | 12.22° C | 66% | 1010.2 hPa | 0 mm | - | 8 W/m² | - |
| 1777759097 | 12.22° C | 66% | 1009.9 hPa | 0 mm | - | 10 W/m² | - |
| 1777758795 | 12.78° C | 67% | 1010 hPa | 0 mm | - | 17 W/m² | - |
| 1777758492 | 12.78° C | 68% | 1009.7 hPa | 0 mm | - | 22 W/m² | - |
* Rain latest hour (hover to see other rain measurements)
** Current wind speed in m/s (hover to see current wind gust speed)